Terug naar catalogus

THORAD DELTA 1 DEB

ActiefSSO
NORAD 42599·DEBRIS·🇺🇸 United States

Gelanceerd Nov 15, 1974 vanaf Vandenberg Space Force Base

Loading…

Volgende Passages (komende 24 uur)

TLE

VersSource: Space-Track

Epoch: Sep 14, 2026, 13:38 UTC

1 42599U 74089FQ  26257.56860333  .00000369  00000-0  22683-2 0  9994
2 42599 101.5442 356.0289 0050641 303.7262  67.6159 12.63423233577822

Volg THORAD DELTA 1 DEB in realtime met AllMySat

Download on the App Store